Find Starlink 11507

NORAD ID: 62519 Int'l Des: 2025-004 Owner: SPXS Country: US Constellation: starlink operational
LEOCIRCULAR

現在のビュー

3D地球を読み込み中...

About Starlink 11507

Starlink 11507 (NORAD 62519) is a starlink constellation satellite (v2 mini d2c) launched Jan 8, 2025 by SPXS of US. It operates in LEO, CIRCULAR orbit with a mass of 960.00 kg.

Starlink 11507について

説明を読み込み中...

次回通過

Passes for default location (London). Set your location on the main map for personalized predictions.

高度履歴

Loading altitude history...

軌道要素

1 62519U 25004J 26169.19231860 .00058853 00000-0 45728-3 0 9996
2 62519 43.0007 185.0519 0001668 252.1179 107.9507 15.70924237 83017
Epoch: Jun 18, 2026 • Age: 39 hours

現在のステータス

高度 356.2 km
速度 7.70 km/s
衛星直下点 -6.48°S, 160.73°E
打ち上げ日 Jan 8, 2025
運用期間 1.4 years
タイプ internet

技術仕様

分類 Payload
質量 960.00 kg
乾燥質量 910.00 kg
総質量 960.00 kg
長さ 0.30 m
直径 4.10 m
スパン 29.00 m
形状 Box + pan
製造者 SPXS
バスタイプ Starlink V2MD
フェーズステータス In Orbit
所有者/国 SPXS/US

Most Searched